Wind_Speed
46 46 46 45 45 44 43 42 41 40 40 40 40 40 41 44 46 49 49 49 50 51 52 53 55 55 55 56 56 57 56 56 55 54 52 51 51 50 49 48 46 46 46 44 43 43 42 42 42 41 39 38 36 35 34 32 31 28 25 23 23 22 21 21 19 19 20 18 13 11 10 8 9 11 12 15 13 11 10 11 14 16 16 16 17 19 21 25
48 48 48 48 47 46 46 44 44 43 43 43 43 43 43 45 47 49 51 51 51 52 53 53 55 56 56 57 57 57 58 58 57 56 55 54 53 53 51 50 49 48 48 46 44 44 44 45 44 43 42 41 39 37 36 35 33 31 28 26 25 24 23 23 21 19 20 19 16 14 14 10 10 14 14 14 13 11 11 11 13 13 13 14 14 18 22 25
50 50 50 50 50 49 48 47 46 46 46 45 46 46 46 46 48 50 52 54 54 53 54 54 55 55 56 57 57 58 58 59 59 59 58 57 56 55 54 53 52 50 50 48 46 46 46 46 45 45 44 43 41 39 38 36 35 33 31 29 27 26 25 25 23 21 20 20 18 17 16 13 12 14 16 15 13 12 12 11 12 12 11 12 13 18 23 24
52 52 52 52 52 52 51 50 49 49 48 48 48 49 49 49 50 51 53 55 56 56 55 56 56 56 56 57 58 58 58 59 60 60 60 59 58 58 56 55 54 52 52 51 49 48 48 47 46 45 45 43 42 40 39 37 36 35 33 32 30 29 28 27 25 24 22 22 20 19 19 17 16 15 16 16 14 13 11 11 13 12 11 12 13 17 21 23
54 54 54 54 54 54 54 53 52 52 51 51 51 51 52 52 52 53 54 56 57 58 58 57 57 57 57 57 57 58 59 59 60 60 61 61 61 60 59 58 57 55 54 53 52 50 49 48 47 47 46 45 43 41 39 38 37 36 35 34 33 32 31 29 28 27 25 25 24 23 21 21 20 18 17 16 13 13 11 10 11 10 11 13 12 16 19 20
55 55 56 56 56 56 56 56 55 54 54 54 54 54 54 55 55 55 56 57 58 60 61 60 59 59 59 58 58 58 58 59 60 60 61 61 62 62 62 61 59 58 57 56 55 53 51 50 50 49 48 46 44 42 40 40 38 37 37 36 36 35 34 33 32 30 29 28 27 26 24 23 22 22 21 17 12 12 12 9 9 9 11 12 10 14 17 17
54 55 56 57 58 58 58 58 57 57 56 56 56 56 57 57 58 58 58 58 60 61 62 63 62 61 61 60 60 59 59 59 60 60 60 61 61 62 63 63 62 61 59 58 58 56 54 53 52 51 49 47 45 44 43 41 40 39 39 39 39 38 38 37 35 34 33 32 30 29 27 26 24 24 24 20 14 13 13 12 12 12 13 12 11 14 17 17
53 54 56 57 58 59 60 60 60 59 59 59 59 59 60 60 61 61 61 61 61 62 63 64 64 64 63 62 62 61 60 60 60 60 60 60 61 62 63 63 63 62 62 61 60 59 57 56 54 53 51 49 47 46 45 43 43 43 42 41 41 41 40 39 38 37 36 34 33 31 30 29 27 26 26 24 19 17 17 15 15 14 13 14 14 16 19 18
54 54 55 56 58 59 60 60 61 61 61 61 61 62 62 63 63 63 63 63 63 64 64 65 66 66 66 65 64 63 62 61 60 60 60 60 61 61 62 63 63 63 63 63 63 62 60 58 56 55 53 51 49 48 48 47 46 45 45 44 43 42 41 40 39 38 37 35 34 33 32 31 30 29 28 27 24 22 21 20 18 18 17 16 16 18 20 19
56 56 57 57 58 59 60 61 61 62 62 63 64 64 65 65 66 66 66 66 66 66 66 66 67 68 68 68 67 65 65 64 62 61 61 60 61 61 62 63 63 63 64 64 64 63 61 59 58 57 55 53 53 51 51 50 49 48 47 46 45 43 42 41 39 38 38 37 36 35 34 33 32 32 31 29 28 26 25 24 23 23 23 22 20 19 21 20
59 59 59 60 60 60 61 61 62 62 63 64 65 67 68 68 68 68 68 68 68 68 68 68 68 69 69 70 69 68 67 66 65 64 63 62 61 61 62 62 63 64 64 64 64 63 62 61 60 59 58 57 56 55 53 53 52 50 49 48 47 45 44 42 41 39 38 38 38 37 36 36 35 35 34 33 32 30 27 27 26 26 26 26 23 21 22 21
60 60 61 61 62 63 63 63 63 63 63 64 66 68 69 70 70 70 70 70 70 71 70 70 70 70 70 71 71 71 70 69 68 67 65 64 63 62 62 62 62 63 65 64 63 62 63 62 62 61 60 59 59 57 56 55 54 53 52 51 49 47 46 44 42 41 40 40 39 39 38 38 37 37 37 36 35 33 31 29 28 27 27 26 25 23 23 22
60 60 61 62 63 64 65 66 66 65 65 65 66 69 70 70 71 72 72 72 73 73 73 72 72 72 72 72 72 73 73 72 71 69 68 66 65 64 63 63 63 63 64 63 62 62 63 63 63 62 61 61 60 58 58 58 56 55 55 53 50 49 47 46 44 43 42 41 40 39 39 38 38 38 37 37 36 35 33 30 29 28 28 27 25 24 24 24
59 59 60 61 63 64 66 67 68 68 68 68 68 70 70 71 72 73 74 74 75 75 75 75 74 74 74 73 73 74 74 74 73 72 71 69 67 66 65 65 64 64 63 61 61 62 63 63 62 62 62 62 61 61 60 59 58 58 57 54 52 50 49 47 46 44 43 42 41 40 40 39 39 38 38 37 37 36 35 33 31 30 28 27 26 25 25 25
56 57 58 60 62 63 65 68 69 70 70 70 71 72 71 71 72 74 75 76 77 77 77 77 77 76 76 76 75 75 75 75 75 75 74 72 70 69 67 66 65 64 62 61 61 62 62 62 62 62 62 62 62 62 61 60 60 60 58 56 53 52 51 49 47 46 45 44 43 42 41 40 40 39 39 39 38 37 36 35 33 31 29 28 27 26 26 25
54 55 56 57 60 61 64 66 69 70 71 72 74 75 73 72 72 74 75 76 78 79 79 79 79 79 78 78 78 77 75 75 76 77 76 74 73 71 70 68 67 66 64 63 62 62 62 62 62 61 61 61 62 62 62 61 61 61 60 57 54 53 52 50 49 49 47 46 45 44 43 42 41 41 40 40 40 39 38 36 35 33 31 29 28 27 26 26
52 52 53 54 56 59 61 64 67 68 70 73 75 76 76 74 73 73 74 76 78 80 81 81 82 81 81 81 80 79 77 76 76 78 78 77 76 74 73 72 70 68 66 64 63 63 63 62 61 61 60 60 61 61 61 61 62 62 62 59 56 55 53 52 52 51 49 48 47 46 45 43 43 42 42 41 41 40 39 37 36 34 33 31 29 27 26 26
51 51 50 50 52 56 59 62 64 66 69 73 75 76 77 76 75 73 73 75 78 80 81 83 84 84 84 83 82 81 80 78 77 78 79 79 78 77 76 74 72 69 68 67 65 65 64 63 62 61 61 60 61 61 60 61 62 62 62 60 58 56 55 54 54 53 51 50 48 47 46 45 44 43 42 42 41 41 39 38 37 35 34 32 30 28 26 26
50 49 47 47 50 54 57 59 62 65 68 72 75 76 77 77 76 74 73 74 77 79 81 83 85 86 86 85 84 83 83 82 80 79 79 80 80 79 78 76 74 72 70 69 68 67 66 64 63 63 62 62 62 62 61 60 60 60 61 62 60 58 57 56 56 54 53 52 50 48 47 46 45 44 43 42 41 40 40 39 37 35 34 32 30 28 26 25
48 46 45 47 51 54 57 59 61 65 68 72 74 75 75 76 76 76 75 74 75 78 80 83 86 87 88 87 87 86 85 84 83 81 80 80 81 80 80 78 76 74 73 72 71 70 68 66 65 65 65 63 62 62 61 59 58 59 60 61 61 59 58 58 57 56 54 53 51 49 49 47 46 44 43 42 41 41 40 40 38 36 34 32 30 28 26 25
46 46 48 50 52 55 58 60 62 66 69 71 72 73 73 73 75 76 76 75 74 76 79 82 85 86 88 89 89 88 87 86 85 84 82 81 80 81 80 80 78 77 76 75 74 72 69 68 68 68 66 65 63 62 61 59 57 57 58 59 60 60 59 58 57 56 55 54 51 50 49 48 46 45 44 43 42 42 41 41 39 38 36 33 31 29 26 25
47 49 50 52 54 56 60 63 64 67 70 71 70 70 70 70 72 74 75 76 75 75 78 82 84 85 88 89 90 91 90 89 87 87 85 83 82 81 81 81 80 79 78 77 76 74 72 72 71 70 68 66 65 63 61 59 57 57 57 58 60 61 59 58 57 57 56 53 51 51 49 48 47 46 45 44 43 43 42 41 40 39 37 36 33 30 27 26
48 50 52 54 55 58 62 65 66 68 69 69 68 67 68 68 69 72 73 75 75 75 76 80 83 85 86 88 91 92 92 91 90 89 88 86 85 83 81 81 81 80 79 78 77 76 76 76 75 72 70 68 67 65 63 61 59 58 58 59 61 61 59 57 57 57 56 54 52 51 50 48 48 47 46 45 44 43 42 41 41 40 39 37 35 32 29 27
49 52 55 57 58 60 64 66 66 67 66 65 65 65 65 66 66 68 70 72 74 75 75 77 81 84 85 87 90 92 94 94 93 92 90 89 87 85 83 82 82 81 80 80 79 79 80 80 77 74 72 70 69 67 65 63 62 60 60 61 61 61 59 57 57 56 56 54 52 51 50 49 49 48 46 45 44 42 41 40 40 39 38 37 35 33 31 28
51 55 58 61 61 61 63 65 64 63 63 62 62 63 63 63 63 64 66 70 73 74 74 75 78 82 86 88 89 91 94 95 95 94 92 91 90 88 86 84 83 82 81 81 80 81 82 82 79 76 74 72 70 68 67 65 64 63 63 63 62 60 59 57 56 55 55 54 51 49 48 48 48 47 45 44 43 40 39 38 38 38 37 36 35 33 31 28
55 58 60 62 62 60 60 62 61 59 59 58 58 59 60 59 60 62 65 68 72 74 74 75 77 81 85 87 88 90 92 95 96 96 95 93 92 91 89 86 85 83 82 82 81 82 84 82 79 77 75 74 72 70 69 68 66 67 68 67 64 61 60 58 55 53 54 52 49 48 46 46 45 45 44 42 40 38 37 38 37 36 35 35 35 33 31 28
57 60 62 63 63 60 59 58 57 55 53 53 55 55 56 57 59 62 64 68 72 74 75 75 76 80 83 86 88 89 90 93 97 98 97 96 94 92 91 89 87 85 83 82 81 83 84 82 79 78 77 75 74 73 72 70 69 71 72 70 66 64 62 59 55 54 53 52 49 48 46 45 44 44 42 40 39 38 38 38 38 36 35 34 34 33 31 28
59 62 64 64 63 60 57 55 53 51 49 49 50 51 53 55 58 61 64 68 71 74 76 76 77 79 81 85 88 90 91 92 95 97 98 97 95 94 92 91 89 87 85 83 83 85 84 82 81 80 79 77 77 76 75 72 73 75 74 70 68 66 63 60 57 55 54 52 50 49 47 46 45 44 42 41 41 42 41 40 39 37 35 34 33 32 30 28
63 64 64 63 61 58 54 52 49 47 45 44 46 48 50 53 56 60 63 67 70 73 76 77 78 79 81 84 88 90 92 92 93 95 98 98 97 96 94 92 90 89 87 86 85 85 84 83 83 81 80 80 79 79 76 75 77 78 75 72 70 68 65 62 59 57 55 53 52 50 49 47 46 45 43 44 46 46 43 41 40 38 36 34 32 31 29 27
65 65 63 60 57 53 50 47 44 43 42 41 42 44 47 50 53 57 62 65 68 71 75 77 79 80 82 85 89 91 92 92 92 93 96 98 98 97 96 94 92 91 89 89 88 86 85 84 83 82 82 82 81 80 77 78 80 79 76 74 72 70 67 64 62 59 56 55 54 53 51 50 49 47 47 48 48 45 42 40 38 37 35 32 30 29 28 26
66 64 61 57 52 47 44 41 39 39 38 38 38 41 44 47 50 54 59 63 66 69 73 77 80 82 84 87 89 91 92 92 92 92 94 97 99 99 98 96 94 93 92 91 90 88 87 85 84 83 83 83 82 80 79 81 81 79 77 76 74 72 69 66 64 62 58 56 56 55 54 53 52 50 49 49 47 44 41 39 38 36 34 32 30 29 27 26
66 64 59 52 47 42 38 36 35 35 35 35 36 39 42 45 48 52 56 59 63 66 70 74 79 82 85 88 90 91 91 92 93 94 95 97 99 101 100 98 97 95 94 93 92 90 89 87 85 84 84 84 83 82 82 82 82 80 80 79 76 74 72 69 66 64 61 59 58 57 56 56 55 52 51 49 46 44 41 39 37 35 34 33 30 29 28 26
66 62 55 48 42 37 33 31 31 31 31 32 34 37 40 44 47 50 54 57 60 63 67 71 75 80 84 87 90 92 93 94 96 97 98 98 100 101 102 101 99 97 97 96 94 93 91 89 88 86 85 85 84 83 83 83 82 82 81 80 78 76 73 71 68 66 64 63 62 60 58 58 57 55 53 51 48 45 42 39 37 34 33 31 30 29 28 27
65 58 51 44 38 34 30 28 27 28 28 30 32 35 38 42 45 49 53 56 59 62 65 68 71 75 79 83 87 91 94 97 98 100 100 100 100 102 103 102 101 100 99 97 96 95 93 92 90 89 87 86 85 84 84 83 83 83 82 81 80 78 75 73 71 70 68 67 66 64 62 61 60 58 56 54 50 47 44 41 38 35 32 30 30 30 29 29
64 55 48 42 36 32 28 26 25 24 25 27 30 32 36 40 43 47 51 54 58 61 63 65 67 71 74 78 83 87 92 96 99 101 102 102 102 102 103 103 102 101 100 99 98 96 95 93 92 91 89 88 87 85 85 85 84 84 83 82 81 79 77 76 74 73 72 71 69 68 65 63 61 61 60 56 53 49 46 43 40 38 34 32 32 32 30 29
63 54 47 41 36 31 27 24 22 21 22 24 27 30 34 37 41 45 49 52 56 59 61 63 65 67 70 73 77 81 86 91 96 100 103 103 103 103 103 103 103 102 101 101 100 98 97 95 94 92 91 90 89 87 86 86 85 85 84 83 82 80 79 78 76 75 74 74 72 70 67 64 63 64 62 58 55 51 48 45 43 40 38 36 36 35 32 30
63 54 48 42 36 31 27 23 20 19 20 22 25 28 31 35 39 43 46 50 54 58 60 62 64 64 66 69 72 76 80 85 91 96 101 103 103 103 104 104 104 103 103 102 101 100 99 98 96 94 92 91 90 90 89 88 87 86 85 85 83 82 81 79 78 78 77 77 75 72 70 67 64 64 64 61 57 54 51 48 45 43 41 40 39 37 34 33
64 56 49 43 37 32 27 22 18 16 17 19 22 26 29 33 37 41 44 47 51 55 59 61 62 63 64 66 68 72 76 80 86 92 98 101 103 103 103 104 105 104 104 104 103 102 101 100 98 96 94 93 92 91 91 90 89 87 87 86 84 83 82 81 80 79 78 78 77 74 72 70 66 64 65 64 60 57 54 51 48 46 44 43 42 40 37 35
66 57 50 43 38 32 27 21 17 14 14 17 20 24 27 31 34 38 41 44 48 51 56 59 61 62 63 65 67 69 72 76 82 88 94 99 102 104 104 104 104 105 105 105 105 104 103 102 101 99 97 95 94 93 93 92 90 89 88 87 86 85 84 83 81 80 79 79 78 76 75 72 69 67 67 66 63 59 56 54 51 48 46 46 45 43 40 37
68 59 51 44 38 33 27 21 16 13 12 15 18 22 25 29 32 36 39 42 45 48 53 58 61 62 62 63 65 67 70 73 76 82 89 95 101 104 105 105 105 106 106 107 107 107 106 105 103 101 99 97 96 95 95 93 92 91 89 88 87 86 85 84 83 81 80 80 78 77 76 73 71 71 70 69 66 63 60 57 54 52 50 48 48 46 42 40
70 61 52 45 38 33 27 22 16 12 11 13 16 19 24 27 30 34 37 40 42 46 51 56 60 62 62 62 63 66 68 70 73 76 82 89 96 102 105 106 106 107 108 108 109 109 108 107 106 104 102 100 98 98 96 95 94 93 91 90 89 87 86 85 84 82 81 81 80 78 77 75 74 73 72 71 69 66 63 60 57 55 53 51 50 48 46 44
73 64 54 45 38 33 27 22 16 12 10 11 14 17 21 26 29 32 35 38 41 44 48 53 58 61 62 63 64 65 67 69 71 73 76 82 89 96 102 106 107 108 109 110 111 111 111 110 109 107 105 103 101 100 99 97 96 95 93 92 90 89 88 86 85 84 82 82 81 79 78 77 76 74 73 72 71 68 66 63 61 59 57 55 53 51 49 47
75 66 56 47 39 33 28 22 17 12 9 9 11 14 18 23 26 29 32 35 39 42 46 50 55 59 62 63 64 65 66 67 69 70 73 76 82 88 96 101 105 107 108 110 111 113 113 112 111 110 108 106 104 102 101 100 98 97 95 94 92 91 90 88 87 85 84 83 82 80 79 78 76 75 73 73 72 71 69 67 65 62 60 59 57 54 52 50
76 67 57 48 40 34 29 23 18 14 10 8 9 12 16 20 24 27 30 32 36 39 42 46 51 55 59 62 63 64 64 65 66 68 70 72 76 82 89 95 100 104 107 108 110 112 112 112 112 111 110 108 106 104 103 101 100 99 98 96 95 93 91 90 89 87 86 85 83 82 81 79 77 75 74 74 74 73 72 71 68 66 64 62 60 58 55 53
77 70 60 50 42 36 30 25 20 15 11 9 8 10 13 17 21 25 28 30 33 36 40 43 47 51 55 59 62 63 63 64 64 66 67 69 71 75 81 88 95 100 104 106 108 109 110 111 111 111 110 108 107 106 104 103 102 101 99 98 97 95 93 92 91 89 87 86 84 83 82 80 79 77 75 75 75 75 75 74 72 70 68 66 63 61 59 57
77 72 62 53 44 37 32 26 21 17 12 9 8 9 11 15 18 22 26 29 32 35 38 41 45 48 52 56 60 63 64 65 65 66 67 68 69 71 75 81 88 95 101 104 106 107 108 109 110 110 110 109 107 106 105 104 103 102 101 99 98 97 96 94 93 92 90 88 86 85 83 82 81 79 77 76 76 76 77 76 75 73 71 69 67 65 62 60
77 73 64 55 47 39 33 28 23 19 14 10 8 8 10 13 17 20 23 27 30 33 36 39 42 45 49 53 57 61 63 65 66 66 67 68 69 71 72 75 81 88 95 101 105 107 108 109 110 111 111 110 109 108 107 105 104 103 103 101 100 99 98 96 95 93 91 89 88 86 85 84 83 81 79 78 78 77 78 78 77 76 74 72 70 68 65 64
77 75 66 57 48 41 35 31 25 20 16 12 9 8 9 11 15 18 22 25 28 31 34 37 40 43 46 50 54 58 61 64 66 67 67 68 69 71 72 73 76 81 88 95 101 105 107 108 110 112 112 112 111 110 109 108 107 106 105 104 103 101 100 98 97 95 93 92 90 89 88 87 85 83 82 81 80 79 79 79 78 77 76 75 72 70 68 67
78 76 69 59 50 42 37 33 28 23 18 14 10 8 9 10 13 16 20 23 27 30 33 36 38 41 43 46 50 54 58 62 64 66 67 68 69 70 71 73 75 77 81 88 94 101 105 108 110 112 113 113 113 112 111 111 110 110 109 108 106 105 103 101 99 97 96 94 93 91 91 90 87 85 85 83 82 81 80 80 79 78 77 76 74 72 70 69
78 77 70 61 53 45 39 35 30 26 21 16 12 9 9 10 12 15 18 22 25 28 31 33 36 38 41 43 46 50 54 57 61 64 66 67 68 70 71 72 74 75 78 81 87 94 100 105 109 111 112 113 114 114 113 113 112 112 112 112 111 109 107 105 103 101 99 97 96 95 94 93 90 88 87 86 84 83 82 81 80 80 78 77 76 75 73 71
77 77 72 64 56 48 41 37 33 28 22 18 14 11 9 9 11 13 16 19 22 25 28 31 34 36 39 41 43 46 49 52 56 60 63 66 67 69 70 71 73 74 76 78 82 87 94 100 106 109 111 113 114 114 114 114 114 114 114 114 114 112 111 109 107 105 103 101 100 98 97 95 93 91 89 88 87 85 83 82 82 81 79 78 77 77 76 74
76 77 73 65 58 50 43 39 35 30 25 20 16 12 10 9 10 11 13 16 19 22 25 29 32 34 37 39 41 44 46 49 52 56 59 63 66 68 70 71 72 73 75 76 78 82 87 93 100 105 108 111 113 113 114 115 115 115 115 116 116 115 113 112 110 109 107 106 104 103 101 99 97 95 92 91 89 87 86 84 83 82 81 79 78 78 77 76
Wind_Direction
263 262 260 260 258 256 253 250 246 243 240 236 233 231 230 229 228 228 227 226 224 222 220 219 220 221 221 221 221 222 223 224 224 223 223 223 223 224 224 225 225 223 221 222 223 225 226 225 225 225 224 223 223 222 222 220 219 217 212 206 207 207 202 205 210 208 208 207 204 204 201 211 235 245 258 267 278 296 308 328 337 340 351 350 345 352 357 357
263 262 260 259 258 256 254 251 247 244 241 238 235 232 231 229 229 229 228 227 227 225 223 222 220 220 221 222 221 221 223 224 225 225 225 224 224 224 225 226 226 225 223 223 225 226 226 226 225 226 226 225 225 225 224 223 222 222 219 212 209 211 206 206 213 217 217 215 213 208 203 203 226 241 248 262 277 288 298 324 336 336 347 346 345 356 360 360
263 262 261 259 258 257 254 252 249 246 242 240 237 234 232 230 229 229 229 228 228 227 226 224 222 221 221 222 222 222 222 223 225 226 226 226 226 225 225 227 227 227 226 226 226 227 227 227 227 227 227 228 228 228 227 227 226 226 225 219 214 214 213 210 212 217 221 221 220 217 213 207 217 242 255 266 272 277 288 313 320 316 337 347 347 353 355 354
263 262 261 259 258 257 255 253 250 247 244 241 239 236 233 232 230 229 228 229 229 228 227 226 225 223 221 221 221 222 223 223 224 225 226 227 227 227 227 227 228 227 227 228 228 228 228 228 229 229 229 229 230 231 231 230 229 229 230 227 221 218 219 217 215 216 222 225 225 223 222 219 220 235 255 264 270 278 287 301 301 302 332 344 344 344 345 345
264 263 261 260 258 257 255 253 251 248 246 243 240 238 235 233 231 230 229 228 228 229 228 228 227 226 224 222 221 222 223 223 224 224 225 226 227 228 228 228 229 228 228 229 229 228 229 230 231 231 230 230 231 233 234 233 232 232 232 232 228 223 223 223 221 218 221 226 229 230 231 232 232 235 246 255 269 281 281 293 294 300 332 341 341 335 337 340
266 265 263 261 259 257 255 253 251 249 247 244 241 240 237 235 232 231 230 228 228 228 229 228 228 227 226 224 223 222 222 222 224 224 225 225 226 228 229 229 230 229 229 230 230 229 230 231 231 232 232 231 233 235 236 235 233 234 234 234 233 229 226 226 225 221 221 225 229 234 237 240 241 241 246 252 266 273 268 283 294 299 321 333 337 328 330 338
267 266 264 263 261 258 256 254 252 250 247 245 243 240 239 237 234 232 230 229 228 228 228 229 228 228 228 227 225 223 222 222 223 224 225 225 226 227 228 229 230 230 230 230 231 230 230 231 232 232 233 233 235 237 236 235 235 236 236 235 233 231 228 226 226 224 223 225 227 232 237 242 244 244 249 253 258 265 265 276 289 292 306 319 322 320 325 336
267 265 264 263 262 260 258 256 253 250 248 246 244 241 239 238 236 233 231 230 229 228 228 228 229 229 229 228 227 225 224 223 223 223 224 225 226 227 228 228 229 230 230 230 231 231 231 231 232 233 234 235 237 237 237 237 236 237 237 236 234 232 230 228 228 228 227 227 229 231 236 241 245 246 251 254 256 263 269 275 283 286 297 308 306 311 320 330
270 267 265 263 262 260 258 257 254 252 249 247 244 242 240 238 237 235 233 231 230 229 228 228 228 228 229 229 229 228 226 224 223 223 223 223 225 226 228 228 228 229 230 230 231 231 231 231 232 233 234 236 237 238 238 238 237 238 238 237 236 235 234 233 233 233 233 234 234 236 238 242 246 249 252 255 257 261 266 271 275 278 287 297 297 300 310 321
271 269 267 265 263 261 259 257 255 253 250 248 246 243 241 239 237 235 234 232 231 229 229 228 227 228 228 229 229 229 228 226 224 223 222 223 223 225 227 228 228 229 229 230 230 231 232 232 233 234 234 235 236 237 238 238 238 238 238 239 238 238 237 237 236 237 238 239 240 241 243 246 249 252 254 256 259 260 263 266 270 273 279 287 291 293 301 312
269 268 267 266 264 263 261 259 256 254 251 249 247 244 242 239 237 235 234 233 232 230 229 228 228 227 228 228 229 229 229 228 226 225 223 223 223 224 225 227 228 228 229 229 230 231 232 232 233 233 233 234 235 236 237 239 239 239 239 239 239 239 238 238 238 239 239 240 242 243 244 246 249 252 255 256 257 259 261 264 268 271 275 280 286 289 296 304
266 265 265 264 263 263 262 261 258 256 253 250 248 246 243 240 238 236 234 233 233 232 230 229 228 228 227 228 228 229 229 228 228 226 225 224 223 223 224 226 227 228 229 229 230 230 231 232 232 233 234 234 235 235 237 238 239 239 239 239 239 239 239 239 240 240 241 241 242 243 245 246 248 251 254 257 258 260 262 264 267 270 273 277 281 284 290 297
264 263 262 262 261 261 261 260 260 258 255 252 250 247 244 241 239 237 235 233 232 232 231 230 228 228 227 227 227 228 228 229 228 228 227 225 224 224 224 225 226 227 229 229 229 230 230 231 232 233 234 234 235 235 236 237 238 239 239 239 239 239 240 240 241 242 243 243 244 245 246 248 250 252 255 258 260 262 264 266 267 269 272 276 278 281 285 290
264 262 261 260 259 259 259 259 259 258 257 255 253 250 246 242 240 237 235 233 232 231 231 230 229 228 228 227 227 227 227 228 229 228 228 227 226 225 225 225 226 226 227 228 229 230 230 230 231 232 233 234 235 234 235 236 238 238 239 239 239 240 240 240 241 242 244 245 246 246 247 249 251 253 255 257 259 261 264 266 267 268 270 275 278 281 283 286
265 263 261 260 259 258 257 257 257 257 256 255 254 252 249 244 241 238 235 234 232 231 230 230 229 229 228 228 227 227 227 227 228 229 228 227 227 226 226 226 226 226 226 226 228 229 230 230 230 231 232 233 235 235 235 236 237 238 239 239 238 240 240 241 241 242 243 244 245 246 247 248 250 252 254 257 258 260 262 264 267 268 270 273 277 281 282 284
267 266 263 261 259 258 257 256 256 255 255 254 254 253 251 247 243 239 236 234 232 231 230 229 229 229 228 228 227 227 226 226 228 229 229 228 227 227 226 226 226 226 225 225 226 228 229 230 230 230 231 232 234 235 235 236 237 238 239 238 238 240 241 241 242 242 243 243 245 246 247 248 249 251 254 256 258 260 261 263 266 268 269 271 274 277 280 281
270 268 266 264 262 260 258 257 256 255 254 253 253 253 252 250 246 242 237 234 232 231 230 229 228 228 228 228 227 227 226 226 227 228 229 228 228 227 227 227 227 226 226 225 226 226 227 229 230 230 230 231 232 234 234 234 235 237 239 238 238 239 240 241 243 243 244 244 245 246 247 248 249 251 253 255 257 259 261 263 265 267 268 269 271 274 276 279
274 271 269 268 265 263 260 259 257 255 254 253 252 252 252 251 249 245 240 236 233 231 230 229 228 227 227 227 227 227 226 225 225 227 228 228 228 228 227 227 227 227 227 226 226 226 226 227 229 230 230 230 231 232 233 233 234 237 239 239 238 239 240 241 243 243 244 245 245 246 247 248 249 250 251 254 256 258 261 264 264 265 266 268 270 272 274 276
277 276 274 272 270 267 264 262 260 258 256 254 252 251 251 251 250 248 243 238 234 231 229 229 228 227 226 227 226 227 226 225 225 226 227 228 228 228 227 227 227 227 227 227 226 226 226 227 227 228 229 229 230 231 232 233 234 236 239 240 239 238 239 240 241 243 244 245 245 246 248 249 250 250 252 254 256 258 261 263 264 265 266 267 269 271 272 274
282 281 279 276 274 271 269 266 264 262 258 256 254 252 251 251 250 249 246 242 237 232 229 228 228 227 226 226 226 226 226 226 225 225 226 227 228 228 228 227 227 226 227 227 227 227 226 226 227 227 228 228 229 231 233 233 234 235 237 239 239 238 238 239 241 242 244 245 245 247 249 250 252 253 255 257 259 261 262 264 265 266 267 268 268 269 271 272
288 285 281 278 276 275 273 270 268 265 262 258 256 255 252 251 250 249 247 244 239 234 230 228 227 227 226 225 225 225 226 226 226 225 225 226 227 228 228 228 227 226 226 227 227 227 227 226 227 227 228 228 229 230 232 233 233 234 236 238 239 238 237 238 240 241 243 244 246 248 249 251 254 255 257 258 260 262 264 265 267 267 268 268 268 268 269 270
289 285 282 280 279 279 277 274 271 268 265 262 259 257 255 251 249 247 246 244 240 235 231 228 226 226 226 225 225 224 225 225 225 225 225 225 226 227 228 228 227 226 226 226 227 227 227 227 227 227 227 228 229 229 230 231 232 233 234 236 238 238 237 237 238 240 241 243 245 247 248 250 252 253 255 256 257 259 261 263 264 265 266 267 267 267 267 269
287 285 284 284 283 282 279 276 273 270 267 265 262 260 256 252 249 246 244 243 241 236 232 228 225 225 226 225 224 224 224 224 225 225 225 224 225 226 227 227 227 227 227 227 227 227 227 228 227 227 227 227 228 229 229 230 230 232 233 234 236 237 237 236 237 239 240 241 242 244 246 248 249 250 252 254 255 257 258 260 261 262 263 264 265 265 266 266
288 288 289 289 287 284 281 278 275 272 269 267 263 260 256 253 249 246 243 241 241 237 233 229 226 224 224 225 225 224 223 224 224 224 224 224 224 225 226 227 227 227 227 227 226 227 228 229 228 228 227 227 228 228 228 229 229 230 232 233 235 237 238 237 237 238 239 239 240 242 244 247 248 250 251 252 254 255 256 258 259 260 261 262 263 264 263 264
293 294 294 293 290 287 283 280 277 273 270 266 262 258 255 252 249 245 242 239 238 237 234 230 226 224 223 223 224 224 223 223 223 224 224 224 224 224 225 226 227 227 227 226 226 227 228 229 229 228 228 227 228 228 228 228 229 230 231 232 234 236 237 237 237 237 238 238 239 240 243 245 248 249 251 252 253 254 255 255 256 257 259 261 262 262 262 262
298 300 299 297 293 290 286 283 279 274 269 265 260 256 253 250 246 243 239 236 235 235 233 230 227 224 222 222 223 223 223 223 223 223 223 224 224 224 224 225 226 226 227 226 226 227 229 229 229 229 228 228 228 228 228 228 228 229 230 231 233 234 235 236 236 237 238 237 237 238 239 241 245 247 248 250 251 252 252 252 253 255 257 259 260 261 262 262
305 306 304 301 298 295 291 286 281 275 269 264 258 254 250 246 242 239 236 233 232 232 232 230 227 225 222 222 222 222 223 223 223 223 223 223 223 224 224 224 225 226 227 227 227 228 229 229 229 229 229 229 229 228 228 227 227 229 230 231 231 232 234 235 235 236 237 237 236 236 236 237 240 242 244 246 247 246 246 248 250 253 255 257 259 261 262 262
312 311 309 305 302 299 294 289 283 277 269 262 257 251 246 242 238 235 233 231 229 229 230 229 227 225 223 222 221 221 222 222 222 222 223 223 223 223 224 224 224 225 226 227 227 228 229 229 229 229 229 229 228 228 228 227 227 229 231 231 231 232 233 234 234 235 237 238 236 236 235 235 237 239 240 241 241 241 242 245 249 251 253 255 257 260 261 262
317 314 311 307 304 300 295 289 283 276 269 261 255 249 244 239 236 233 231 229 228 227 227 227 227 225 223 222 222 221 221 222 222 222 222 223 223 223 223 224 224 224 225 226 227 228 229 229 229 228 229 229 229 229 228 228 228 230 231 231 231 231 232 232 232 233 235 237 238 237 236 235 235 236 237 237 238 240 243 247 249 251 251 253 256 258 260 260
320 317 313 310 306 300 294 288 282 275 268 260 252 247 242 237 234 231 229 228 226 225 225 225 225 225 223 223 222 221 221 221 222 222 222 223 223 223 223 223 224 224 225 226 227 228 229 229 229 228 228 229 229 229 229 229 230 231 232 231 231 231 231 231 230 231 232 235 237 238 237 236 235 234 234 236 239 242 245 246 248 250 251 252 253 255 256 257
323 321 317 313 308 301 294 288 281 274 267 259 250 244 240 236 232 230 228 227 226 224 223 223 224 223 223 223 223 222 221 221 221 222 222 222 223 223 223 223 223 224 224 225 226 227 228 229 229 229 229 229 230 229 229 230 231 232 232 232 231 231 231 230 230 230 230 231 234 237 238 237 236 234 235 237 241 244 245 246 248 249 251 251 250 252 253 253
328 325 320 315 309 303 296 288 280 272 265 257 248 241 237 234 230 228 227 226 225 223 222 222 222 222 222 222 222 222 222 221 221 222 222 222 222 223 223 223 223 223 224 225 225 226 227 228 229 229 229 229 230 230 230 230 231 231 232 232 232 231 231 230 230 230 228 228 230 233 236 238 238 237 236 238 240 243 245 248 250 252 253 253 252 251 252 251
332 328 323 318 313 307 299 291 281 273 265 256 248 240 235 232 229 226 225 225 224 223 222 221 221 221 221 221 221 222 221 221 221 221 222 222 222 222 223 223 223 223 224 224 224 225 226 227 228 228 229 229 229 230 230 231 232 232 232 233 233 232 231 230 230 229 228 227 228 230 232 236 239 238 237 238 238 240 242 244 246 249 252 255 255 253 251 250
335 331 326 323 318 312 305 295 285 275 266 257 249 241 235 232 229 225 223 223 223 222 221 221 220 220 220 220 220 221 221 221 220 221 222 222 222 222 222 223 223 223 224 224 224 225 225 226 227 228 228 229 229 229 230 231 232 232 232 232 233 232 231 230 229 228 227 227 228 229 230 233 237 238 238 238 237 237 238 240 242 243 245 249 252 252 251 250
338 335 331 328 324 318 310 300 288 276 266 257 249 242 236 232 229 226 223 222 222 222 221 220 220 220 220 220 220 220 220 220 220 220 221 221 222 222 222 223 223 224 224 225 225 225 225 226 226 227 228 229 229 229 230 230 231 232 232 232 232 232 231 230 229 229 228 229 229 229 229 230 234 237 239 238 238 237 237 238 240 240 240 241 244 246 247 248
341 339 337 334 329 323 316 305 292 278 266 256 249 242 237 232 229 227 224 222 221 221 221 220 220 219 219 219 219 219 219 219 219 220 220 221 221 221 222 222 223 224 224 225 225 225 225 225 226 227 227 228 229 229 229 230 231 231 231 232 231 231 231 230 229 229 229 229 230 230 229 229 231 236 239 239 239 238 238 237 237 238 238 237 239 240 241 242
345 344 342 338 334 329 322 311 298 282 267 255 247 242 237 233 229 227 225 223 221 220 220 220 219 219 218 219 219 219 219 219 219 219 220 220 221 221 221 222 222 223 224 225 225 225 225 225 225 226 227 228 229 229 229 230 230 231 231 231 231 231 231 230 229 229 229 229 230 229 230 229 229 233 239 240 239 239 238 237 236 236 236 236 237 238 238 237
349 348 346 342 337 333 327 319 306 287 269 255 245 239 235 233 230 228 226 224 222 220 220 220 220 219 218 218 218 218 218 219 218 219 219 219 220 220 221 221 222 223 224 225 225 225 225 225 225 225 226 227 228 229 229 230 230 230 231 231 231 231 231 230 230 229 229 230 230 229 229 229 228 230 236 239 239 239 238 238 236 235 235 235 236 237 237 237
352 352 349 344 341 337 332 326 314 295 272 253 242 236 233 231 230 228 227 225 222 220 219 219 220 219 218 217 217 218 218 219 219 219 218 219 219 219 220 221 221 222 223 224 225 225 225 225 225 225 225 226 227 228 229 229 230 230 231 231 231 231 231 231 230 230 229 230 230 229 229 229 227 227 232 237 239 239 238 238 237 235 234 235 236 235 236 237
355 354 351 347 344 340 337 332 322 303 276 254 241 233 230 228 228 227 226 224 223 220 218 218 218 219 218 217 217 218 218 219 219 219 219 219 219 219 219 220 220 221 222 224 225 225 225 225 225 225 225 225 226 227 228 229 229 230 230 231 232 232 232 232 231 231 230 231 230 230 229 229 228 227 229 233 237 238 238 237 237 236 235 234 235 235 234 236
357 356 354 350 346 343 341 337 330 313 286 262 244 233 227 226 226 225 225 223 221 220 219 217 217 218 218 218 218 218 218 219 219 219 220 220 220 220 220 220 220 220 221 223 224 225 225 225 225 225 225 225 226 227 228 229 229 229 230 230 231 232 232 232 232 231 231 231 231 231 230 229 228 227 228 230 234 236 237 237 236 236 235 234 234 234 233 233
358 358 356 353 349 346 344 342 336 323 296 269 251 237 229 226 224 223 223 222 221 219 218 217 217 217 217 217 218 218 219 219 219 219 220 220 221 221 221 221 221 221 221 222 223 224 225 225 225 225 225 225 225 226 227 228 229 229 230 230 230 231 232 232 232 232 231 231 232 231 231 230 229 228 228 230 232 234 235 236 236 236 235 234 234 234 232 231
359 359 357 356 353 350 348 346 341 329 307 279 255 240 232 228 225 223 222 221 221 219 218 217 217 217 217 217 218 219 219 219 220 220 220 221 221 222 222 222 222 222 222 223 223 224 225 225 225 225 225 225 225 225 226 228 228 229 229 230 230 230 231 232 232 232 232 231 231 231 231 231 230 229 228 229 230 232 234 234 235 235 235 235 234 233 232 230
359 360 359 358 356 354 352 349 344 335 318 295 266 245 235 229 226 224 223 222 221 220 219 219 218 218 218 218 219 220 220 220 221 221 222 222 222 222 222 222 223 223 224 224 225 225 226 226 226 226 226 225 225 226 226 227 228 229 229 230 230 230 231 231 232 232 232 231 231 231 231 231 230 230 229 228 229 230 231 232 233 233 234 234 234 233 232 230
359 0 360 359 358 357 355 352 348 341 327 306 279 254 240 233 228 225 222 221 220 220 221 220 219 219 219 219 219 220 220 220 221 222 222 223 223 224 224 223 223 223 224 225 226 227 227 228 228 228 227 227 227 227 227 227 228 229 229 229 230 230 230 231 231 231 231 231 231 231 231 231 230 229 228 228 229 229 229 230 231 231 232 233 233 233 232 231
360 1 1 0 360 359 358 356 352 346 336 316 291 263 245 236 231 227 224 222 221 220 221 221 221 220 219 219 220 220 220 220 220 221 221 222 223 224 224 225 224 224 224 224 225 226 227 228 228 228 228 228 228 228 229 229 229 229 230 230 230 230 230 230 231 231 231 231 231 231 231 231 231 229 228 227 228 228 229 229 229 229 230 231 232 232 232 231
360 1 1 1 1 0 0 360 357 351 342 327 300 272 254 241 233 228 226 225 224 223 222 223 223 221 220 220 220 221 221 221 221 221 221 222 222 223 224 225 225 225 225 225 225 226 227 228 228 228 228 228 228 228 229 229 230 230 231 231 231 231 231 231 231 231 231 231 231 231 231 231 231 230 228 227 227 227 228 229 229 229 229 230 230 230 231 231
359 1 2 2 2 1 1 2 1 356 348 336 314 283 264 249 240 233 229 226 225 224 224 225 225 224 223 222 221 221 222 222 222 222 222 222 222 223 223 224 225 225 225 226 226 226 226 227 228 228 228 228 227 228 228 229 229 230 230 231 231 231 231 231 231 231 231 231 231 231 231 231 231 230 229 228 227 227 227 227 228 229 229 229 230 229 229 230
359 0 2 3 3 3 3 3 3 0 354 345 327 299 275 257 244 239 234 231 227 226 225 225 225 226 226 225 224 223 223 223 223 223 223 223 224 224 224 224 225 225 226 226 226 227 227 227 228 228 228 228 228 227 227 228 228 229 229 230 231 231 231 231 231 231 231 231 231 231 231 231 230 230 231 229 227 226 226 227 227 228 228 228 230 230 229 229
358 359 1 2 3 4 5 6 5 3 358 349 338 317 290 269 253 243 238 235 233 230 228 228 227 227 227 227 227 226 226 225 224 224 225 225 225 225 226 226 226 226 226 226 226 227 227 228 228 229 229 229 228 228 228 228 228 229 229 230 230 230 230 231 231 230 230 231 231 231 231 232 231 230 231 231 229 227 226 226 227 227 227 227 228 229 230 229
356 358 360 2 3 5 6 7 8 6 2 354 344 329 309 285 266 253 244 240 238 235 233 231 230 229 228 228 228 228 228 228 227 226 226 226 227 227 227 228 228 227 227 227 227 227 228 228 229 229 230 230 229 228 228 228 228 229 229 230 230 230 230 230 230 230 230 230 230 230 231 231 231 230 230 231 231 229 228 227 227 227 227 226 226 227 229 229
355 357 359 0 3 5 7 8 10 9 7 1 352 338 321 301 283 270 258 247 241 239 236 235 233 231 230 229 229 229 230 229 228 228 227 227 227 228 228 229 229 229 229 229 228 228 228 229 229 230 230 230 230 230 229 229 229 229 229 230 230 231 231 231 231 230 230 230 229 229 230 230 231 230 229 230 231 231 229 228 227 226 226 226 226 226 227 228
Height
10896 10896 10897 10898 10899 10901 10902 10904 10905 10907 10908 10910 10911 10912 10912 10913 10915 10917 10918 10920 10921 10922 10923 10924 10927 10929 10931 10934 10936 10939 10941 10943 10945 10947 10949 10952 10953 10955 10957 10959 10961 10963 10965 10968 10970 10971 10973 10974 10976 10978 10981 10983 10985 10987 10988 10990 10992 10994 10996 10998 10999 11000 11002 11003 11004 11005 11007 11008 11009 11010 11011 11011 11010 11010 11009 11008 11009 11010 11010 11011 11011 11011 11011 11011 11011 11011 11010 11010
10890 10890 10891 10892 10893 10894 10896 10898 10899 10901 10903 10904 10905 10906 10907 10908 10910 10911 10913 10915 10917 10918 10919 10920 10922 10924 10926 10929 10932 10934 10936 10939 10941 10943 10946 10948 10950 10952 10955 10956 10958 10961 10962 10965 10967 10968 10969 10971 10973 10975 10978 10980 10982 10984 10986 10988 10990 10993 10995 10996 10997 10998 11000 11002 11003 11004 11005 11007 11008 11009 11009 11010 11010 11010 11009 11009 11010 11011 11011 11011 11011 11012 11011 11011 11011 11011 11010 11009
10883 10884 10885 10886 10886 10888 10889 10891 10893 10895 10896 10898 10899 10901 10902 10903 10904 10905 10907 10909 10911 10913 10915 10916 10917 10919 10921 10924 10927 10929 10932 10934 10936 10939 10942 10944 10946 10949 10951 10952 10955 10958 10959 10962 10964 10965 10966 10968 10971 10973 10975 10978 10980 10982 10984 10986 10988 10991 10993 10995 10996 10997 10998 11000 11001 11003 11004 11005 11007 11008 11008 11009 11009 11009 11009 11009 11011 11011 11012 11012 11012 11012 11012 11011 11011 11011 11010 11010
10876 10877 10878 10879 10880 10881 10882 10884 10886 10888 10890 10891 10893 10894 10896 10897 10898 10899 10901 10903 10905 10908 10910 10911 10913 10915 10916 10919 10922 10924 10927 10929 10932 10935 10937 10940 10943 10944 10947 10949 10951 10954 10956 10958 10960 10962 10964 10966 10968 10970 10973 10976 10978 10980 10983 10985 10987 10989 10991 10993 10995 10996 10997 10998 11000 11002 11003 11003 11004 11006 11007 11007 11008 11008 11008 11009 11010 11011 11012 11012 11012 11012 11011 11011 11011 11011 11010 11010
10869 10870 10870 10871 10872 10873 10875 10877 10879 10881 10883 10885 10886 10888 10889 10891 10892 10893 10895 10896 10899 10901 10904 10906 10908 10910 10912 10914 10916 10919 10921 10924 10927 10930 10933 10936 10938 10940 10943 10945 10947 10950 10953 10954 10956 10959 10961 10963 10966 10967 10970 10973 10976 10978 10980 10982 10985 10987 10988 10990 10992 10994 10995 10996 10998 11000 11001 11002 11003 11004 11005 11005 11006 11006 11006 11008 11010 11011 11012 11012 11012 11011 11011 11011 11011 11010 11010 11010
10862 10862 10863 10864 10864 10865 10867 10868 10871 10873 10875 10877 10879 10881 10882 10884 10885 10887 10888 10890 10892 10894 10897 10900 10903 10905 10907 10909 10911 10913 10916 10919 10921 10925 10928 10931 10933 10935 10937 10940 10943 10946 10949 10950 10952 10955 10958 10960 10962 10964 10967 10970 10973 10975 10977 10979 10982 10983 10985 10986 10988 10990 10992 10994 10995 10997 10999 11000 11001 11002 11003 11003 11004 11005 11005 11007 11009 11010 11011 11011 11011 11010 11010 11011 11010 11010 11010 11010
10855 10855 10855 10855 10856 10857 10858 10860 10862 10865 10867 10869 10871 10873 10875 10876 10878 10880 10882 10883 10885 10887 10890 10893 10897 10899 10901 10903 10905 10908 10910 10913 10916 10920 10923 10926 10928 10930 10932 10935 10938 10941 10944 10946 10948 10951 10955 10957 10959 10962 10964 10968 10970 10972 10974 10976 10978 10979 10980 10982 10984 10986 10989 10991 10993 10994 10996 10997 10999 11000 11001 11002 11002 11003 11004 11006 11008 11008 11009 11010 11010 11010 11010 11010 11010 11010 11010 11010
10848 10847 10847 10847 10847 10848 10849 10851 10853 10856 10858 10861 10863 10865 10866 10868 10870 10872 10874 10876 10878 10881 10883 10886 10889 10893 10895 10897 10900 10902 10905 10907 10910 10914 10917 10920 10923 10925 10927 10930 10933 10936 10939 10942 10944 10947 10950 10953 10956 10958 10961 10965 10967 10968 10970 10973 10975 10975 10976 10978 10981 10983 10986 10988 10990 10992 10994 10995 10997 10998 11000 11000 11001 11002 11003 11005 11006 11007 11008 11009 11009 11009 11009 11009 11009 11009 11009 11009
10840 10840 10839 10839 10839 10839 10840 10842 10844 10846 10849 10851 10854 10856 10857 10859 10861 10863 10866 10869 10871 10874 10876 10879 10882 10885 10888 10891 10894 10896 10899 10902 10905 10908 10911 10914 10917 10919 10921 10924 10928 10931 10933 10937 10939 10942 10946 10949 10953 10955 10959 10961 10962 10965 10967 10969 10970 10971 10973 10976 10978 10981 10983 10986 10989 10991 10993 10995 10996 10997 10998 10999 10999 11000 11002 11003 11005 11006 11007 11008 11008 11008 11008 11009 11009 11009 11009 11009
10832 10831 10831 10830 10830 10830 10831 10832 10834 10836 10839 10842 10844 10845 10847 10849 10852 10855 10858 10861 10864 10866 10869 10872 10874 10877 10880 10884 10887 10890 10893 10896 10899 10902 10905 10908 10911 10914 10915 10918 10922 10925 10927 10931 10934 10938 10943 10946 10950 10952 10954 10956 10958 10961 10962 10963 10965 10968 10970 10972 10975 10978 10981 10984 10987 10989 10991 10993 10994 10996 10997 10997 10998 10999 11000 11002 11003 11004 11005 11006 11007 11007 11007 11008 11009 11009 11008 11008
10823 10822 10822 10821 10821 10821 10822 10822 10824 10826 10829 10831 10833 10834 10836 10839 10842 10846 10850 10853 10856 10858 10861 10864 10867 10870 10873 10876 10880 10884 10886 10889 10892 10895 10899 10902 10905 10908 10910 10912 10916 10919 10922 10926 10931 10935 10939 10942 10944 10946 10949 10951 10953 10956 10957 10959 10962 10965 10967 10969 10971 10975 10978 10981 10984 10987 10989 10990 10991 10993 10994 10996 10996 10997 10998 10999 11001 11002 11004 11005 11006 11006 11006 11007 11008 11008 11008 11008
10813 10813 10812 10812 10812 10812 10812 10813 10814 10816 10818 10821 10822 10823 10825 10829 10833 10837 10840 10843 10846 10850 10853 10856 10860 10863 10865 10868 10872 10876 10879 10882 10885 10889 10892 10895 10899 10902 10904 10907 10910 10913 10917 10922 10928 10931 10933 10936 10938 10941 10944 10946 10949 10952 10954 10955 10958 10961 10962 10965 10968 10972 10975 10978 10981 10983 10985 10987 10988 10990 10992 10993 10994 10995 10996 10997 10999 11001 11002 11003 11004 11005 11005 11006 11007 11007 11007 11007
10804 10804 10803 10802 10802 10802 10802 10803 10803 10805 10807 10810 10811 10811 10813 10818 10823 10825 10829 10833 10837 10840 10844 10848 10852 10855 10858 10861 10864 10868 10871 10875 10878 10882 10886 10889 10893 10896 10898 10901 10904 10908 10912 10918 10923 10925 10927 10930 10934 10937 10939 10941 10945 10948 10949 10950 10954 10956 10957 10961 10965 10969 10972 10975 10978 10980 10982 10983 10986 10988 10990 10991 10992 10994 10995 10995 10997 10998 11000 11001 11002 11003 11004 11005 11005 11006 11006 11006
10795 10795 10794 10793 10792 10792 10792 10792 10793 10795 10796 10798 10800 10799 10802 10807 10811 10813 10818 10822 10826 10829 10834 10838 10843 10846 10849 10853 10856 10860 10864 10868 10871 10875 10878 10882 10886 10889 10892 10895 10899 10903 10908 10914 10916 10918 10922 10925 10929 10932 10933 10936 10940 10942 10944 10947 10950 10951 10953 10958 10962 10965 10968 10971 10974 10977 10978 10980 10983 10985 10987 10989 10990 10991 10992 10993 10994 10996 10997 10998 11000 11001 11003 11003 11003 11004 11005 11006
10787 10786 10785 10784 10783 10783 10782 10782 10783 10784 10785 10787 10787 10787 10791 10795 10798 10802 10806 10810 10814 10818 10824 10828 10833 10837 10841 10844 10847 10852 10856 10861 10864 10867 10871 10875 10879 10883 10886 10890 10893 10898 10904 10908 10910 10913 10917 10920 10923 10925 10928 10933 10935 10936 10940 10943 10945 10946 10950 10955 10959 10962 10964 10968 10971 10972 10975 10977 10979 10981 10983 10985 10986 10987 10989 10990 10991 10993 10995 10996 10997 10999 11001 11002 11002 11002 11003 11004
10778 10777 10776 10775 10774 10773 10773 10772 10772 10774 10774 10775 10775 10776 10779 10783 10786 10790 10794 10798 10802 10807 10813 10818 10822 10827 10831 10835 10838 10844 10849 10853 10856 10859 10863 10868 10872 10876 10880 10883 10887 10892 10897 10901 10904 10908 10911 10914 10917 10921 10925 10928 10928 10931 10936 10939 10940 10942 10945 10951 10956 10958 10961 10964 10966 10968 10971 10974 10976 10977 10979 10981 10983 10984 10986 10987 10989 10990 10992 10994 10995 10996 10998 11000 11001 11001 11001 11002
10769 10768 10768 10766 10765 10764 10762 10761 10762 10763 10763 10762 10763 10765 10767 10770 10774 10777 10783 10787 10790 10796 10802 10806 10811 10816 10820 10825 10830 10835 10841 10846 10849 10851 10855 10860 10864 10869 10872 10876 10881 10886 10891 10895 10899 10902 10904 10908 10912 10916 10920 10922 10923 10926 10930 10933 10935 10937 10941 10947 10953 10955 10958 10960 10962 10964 10967 10970 10972 10973 10976 10978 10980 10982 10983 10984 10986 10987 10989 10991 10992 10994 10995 10997 10999 11000 11000 11001
10761 10760 10759 10758 10756 10753 10752 10751 10751 10751 10751 10750 10751 10754 10756 10759 10762 10765 10771 10775 10779 10785 10790 10795 10800 10805 10809 10815 10821 10826 10831 10836 10841 10843 10847 10852 10856 10860 10865 10870 10875 10880 10884 10888 10892 10895 10898 10903 10907 10910 10914 10916 10918 10920 10923 10926 10930 10935 10938 10942 10948 10951 10954 10956 10957 10960 10963 10965 10968 10970 10972 10974 10976 10979 10980 10981 10983 10984 10986 10987 10989 10991 10992 10995 10997 10999 11000 11000
10752 10751 10751 10749 10746 10743 10742 10741 10740 10739 10739 10738 10739 10742 10745 10747 10750 10754 10758 10763 10767 10773 10779 10783 10788 10793 10798 10805 10811 10816 10821 10826 10832 10835 10838 10843 10847 10852 10857 10863 10869 10874 10878 10881 10885 10888 10892 10897 10901 10904 10906 10909 10912 10914 10917 10922 10928 10932 10934 10936 10942 10946 10949 10951 10953 10956 10959 10961 10964 10967 10969 10971 10973 10975 10977 10979 10980 10982 10983 10984 10986 10988 10990 10992 10995 10997 10998 10999
10744 10744 10743 10740 10737 10734 10732 10730 10729 10727 10726 10726 10727 10731 10734 10736 10739 10742 10745 10750 10755 10761 10767 10771 10775 10782 10788 10794 10800 10806 10811 10817 10823 10828 10831 10835 10839 10844 10850 10856 10862 10867 10871 10874 10878 10881 10887 10892 10894 10895 10899 10903 10908 10911 10915 10921 10925 10928 10930 10931 10935 10940 10944 10947 10949 10953 10955 10958 10962 10964 10966 10968 10970 10973 10975 10977 10978 10979 10980 10981 10983 10985 10987 10989 10992 10994 10996 10997
10737 10735 10733 10731 10729 10725 10722 10720 10719 10715 10713 10714 10716 10719 10722 10725 10727 10728 10731 10736 10741 10748 10754 10758 10765 10771 10777 10783 10790 10795 10801 10807 10813 10819 10823 10828 10832 10837 10842 10848 10855 10860 10863 10867 10870 10875 10881 10884 10885 10888 10894 10899 10904 10907 10912 10917 10921 10923 10926 10927 10929 10934 10939 10943 10946 10949 10952 10955 10960 10962 10963 10966 10969 10971 10972 10974 10975 10976 10977 10978 10980 10982 10984 10986 10988 10991 10994 10996
10730 10727 10724 10723 10721 10717 10712 10709 10707 10703 10700 10701 10705 10708 10710 10712 10713 10714 10718 10722 10726 10733 10740 10745 10753 10759 10765 10772 10779 10784 10790 10796 10802 10808 10814 10820 10824 10829 10834 10840 10846 10851 10856 10860 10864 10869 10873 10874 10877 10883 10889 10894 10898 10903 10907 10912 10916 10918 10921 10922 10922 10926 10933 10938 10942 10945 10949 10953 10957 10958 10960 10964 10965 10967 10968 10970 10972 10973 10974 10975 10976 10978 10981 10983 10985 10989 10992 10993
10722 10718 10716 10714 10712 10708 10701 10696 10694 10691 10689 10690 10693 10695 10696 10697 10699 10702 10706 10709 10713 10720 10726 10732 10740 10748 10754 10761 10767 10774 10780 10786 10792 10798 10805 10811 10815 10821 10826 10832 10837 10843 10849 10854 10859 10863 10864 10865 10870 10878 10883 10888 10892 10897 10903 10908 10911 10913 10914 10915 10916 10920 10927 10933 10937 10941 10945 10950 10953 10954 10957 10960 10960 10962 10965 10967 10969 10970 10971 10972 10973 10975 10977 10979 10982 10986 10989 10991
10715 10711 10707 10703 10701 10697 10689 10683 10681 10678 10677 10678 10679 10680 10681 10683 10687 10690 10694 10698 10701 10706 10713 10720 10729 10736 10743 10749 10755 10762 10769 10775 10781 10787 10794 10801 10807 10813 10818 10823 10829 10836 10842 10846 10851 10854 10854 10857 10865 10872 10877 10882 10887 10892 10898 10902 10905 10907 10908 10908 10911 10916 10922 10928 10933 10937 10941 10946 10949 10951 10955 10955 10955 10959 10962 10964 10965 10967 10968 10969 10970 10972 10974 10976 10979 10983 10985 10988
10707 10702 10697 10691 10687 10684 10677 10670 10668 10666 10664 10665 10666 10666 10668 10672 10676 10679 10683 10687 10689 10694 10701 10709 10716 10723 10729 10736 10742 10750 10757 10764 10770 10777 10784 10791 10799 10805 10809 10815 10821 10828 10834 10838 10844 10846 10846 10850 10859 10867 10872 10877 10881 10887 10892 10896 10899 10901 10901 10902 10907 10913 10917 10922 10928 10933 10936 10941 10946 10950 10952 10952 10952 10956 10958 10960 10962 10963 10964 10964 10966 10968 10971 10973 10976 10979 10982 10985
10698 10692 10686 10678 10672 10670 10664 10656 10653 10652 10651 10652 10652 10654 10657 10661 10665 10667 10671 10675 10677 10682 10689 10696 10704 10710 10717 10724 10732 10739 10746 10753 10760 10767 10774 10781 10789 10795 10802 10809 10814 10819 10825 10831 10837 10838 10837 10845 10855 10861 10866 10871 10876 10881 10886 10890 10894 10894 10893 10897 10903 10908 10912 10917 10924 10928 10931 10937 10943 10946 10948 10948 10949 10952 10954 10955 10957 10959 10959 10959 10962 10965 10968 10970 10973 10976 10979 10983
10689 10681 10673 10665 10658 10655 10650 10643 10639 10638 10639 10639 10639 10642 10645 10648 10651 10654 10658 10662 10665 10671 10677 10685 10692 10699 10707 10715 10723 10729 10736 10743 10749 10756 10764 10772 10780 10787 10794 10800 10806 10812 10818 10824 10830 10830 10831 10841 10849 10853 10859 10865 10869 10873 10877 10883 10885 10883 10884 10892 10899 10903 10907 10913 10920 10923 10926 10932 10938 10940 10943 10945 10946 10948 10950 10951 10952 10952 10952 10954 10958 10962 10965 10968 10970 10973 10976 10980
10678 10669 10660 10652 10645 10640 10635 10630 10626 10625 10626 10626 10627 10629 10633 10636 10638 10642 10646 10650 10654 10661 10666 10674 10682 10689 10697 10705 10711 10718 10724 10731 10738 10747 10756 10763 10771 10779 10786 10792 10799 10806 10811 10817 10821 10821 10825 10834 10840 10846 10852 10857 10861 10863 10869 10876 10875 10872 10878 10888 10895 10899 10904 10911 10916 10919 10922 10927 10931 10934 10938 10940 10942 10943 10945 10946 10944 10944 10947 10952 10956 10960 10963 10965 10967 10970 10973 10977
10667 10658 10649 10640 10633 10627 10622 10617 10615 10613 10614 10615 10616 10618 10621 10624 10627 10631 10635 10638 10644 10651 10657 10664 10671 10679 10688 10694 10699 10706 10713 10721 10730 10740 10748 10755 10763 10770 10777 10785 10792 10799 10804 10808 10810 10813 10820 10826 10831 10839 10845 10848 10851 10855 10863 10868 10864 10865 10875 10884 10889 10894 10900 10907 10912 10915 10918 10922 10925 10928 10932 10935 10937 10939 10940 10939 10937 10940 10946 10951 10954 10957 10960 10963 10965 10968 10971 10974
10657 10647 10637 10629 10622 10615 10610 10607 10604 10602 10602 10604 10605 10607 10610 10613 10617 10620 10624 10628 10635 10642 10648 10655 10662 10670 10678 10683 10688 10695 10704 10714 10724 10733 10740 10746 10753 10761 10768 10777 10784 10790 10795 10798 10801 10807 10813 10818 10823 10831 10836 10839 10842 10849 10857 10857 10855 10861 10871 10877 10883 10889 10894 10901 10907 10911 10915 10918 10919 10921 10925 10928 10931 10934 10934 10932 10934 10941 10947 10950 10953 10956 10959 10962 10964 10965 10968 10971
10646 10635 10626 10618 10611 10605 10600 10596 10595 10593 10592 10594 10596 10598 10600 10603 10607 10611 10614 10619 10626 10633 10639 10645 10652 10659 10667 10673 10678 10686 10696 10708 10718 10725 10731 10737 10744 10751 10759 10767 10774 10780 10784 10788 10794 10800 10805 10810 10816 10824 10828 10830 10836 10843 10847 10846 10849 10858 10864 10869 10877 10883 10889 10896 10901 10906 10912 10914 10913 10915 10918 10921 10924 10928 10930 10931 10936 10943 10946 10949 10953 10955 10958 10960 10962 10963 10965 10968
10635 10624 10615 10607 10600 10595 10591 10588 10585 10584 10584 10585 10587 10589 10591 10594 10598 10602 10606 10611 10617 10623 10629 10635 10641 10648 10656 10663 10670 10679 10690 10701 10710 10715 10720 10727 10734 10741 10749 10757 10764 10770 10774 10779 10786 10792 10796 10802 10809 10815 10819 10823 10829 10835 10838 10839 10844 10852 10856 10861 10869 10876 10883 10890 10896 10902 10906 10908 10908 10910 10912 10913 10917 10924 10928 10931 10937 10942 10945 10949 10952 10955 10957 10958 10960 10962 10963 10965
10626 10615 10606 10598 10592 10587 10583 10580 10578 10577 10577 10578 10579 10581 10583 10586 10589 10594 10598 10603 10608 10614 10619 10624 10631 10638 10645 10654 10662 10671 10681 10691 10699 10704 10710 10717 10724 10731 10738 10746 10754 10759 10763 10769 10776 10782 10787 10794 10800 10805 10810 10815 10821 10827 10830 10833 10838 10844 10848 10854 10862 10870 10877 10884 10890 10896 10899 10901 10902 10906 10907 10907 10912 10919 10923 10927 10934 10938 10942 10946 10949 10953 10955 10957 10959 10960 10961 10963
10618 10607 10598 10591 10584 10580 10576 10573 10571 10571 10571 10572 10573 10574 10577 10579 10582 10586 10590 10594 10599 10604 10610 10615 10622 10629 10637 10645 10653 10661 10669 10678 10686 10693 10700 10707 10715 10721 10728 10736 10744 10749 10754 10760 10766 10772 10779 10785 10790 10796 10802 10807 10813 10819 10823 10827 10831 10835 10841 10847 10853 10861 10869 10876 10882 10887 10890 10893 10896 10900 10903 10904 10907 10912 10917 10923 10930 10935 10939 10942 10945 10949 10952 10955 10957 10957 10959 10960
10611 10601 10591 10584 10578 10574 10570 10568 10566 10566 10566 10566 10567 10569 10571 10573 10577 10580 10583 10587 10592 10596 10602 10609 10615 10622 10629 10636 10644 10651 10658 10666 10675 10682 10689 10697 10705 10712 10719 10727 10734 10740 10745 10751 10757 10764 10771 10776 10782 10788 10794 10798 10804 10810 10815 10818 10822 10827 10833 10839 10845 10853 10860 10867 10873 10879 10882 10886 10890 10894 10898 10902 10904 10905 10910 10918 10925 10931 10935 10939 10942 10945 10948 10951 10951 10953 10956 10958
10604 10594 10585 10578 10573 10569 10566 10563 10562 10561 10561 10561 10562 10564 10565 10568 10571 10574 10577 10581 10585 10590 10596 10602 10608 10615 10621 10628 10635 10642 10648 10656 10664 10671 10679 10686 10694 10702 10709 10717 10724 10730 10735 10740 10747 10754 10760 10767 10773 10779 10785 10790 10796 10801 10806 10810 10814 10819 10825 10830 10837 10844 10851 10858 10864 10870 10874 10878 10883 10888 10894 10900 10901 10900 10905 10913 10920 10926 10931 10935 10938 10941 10944 10946 10946 10948 10952 10954
10598 10588 10580 10574 10569 10564 10562 10560 10558 10557 10557 10557 10558 10559 10561 10563 10566 10569 10572 10576 10580 10585 10590 10595 10601 10608 10615 10621 10628 10634 10640 10646 10653 10660 10667 10675 10683 10691 10699 10706 10713 10720 10725 10730 10736 10743 10750 10756 10763 10770 10776 10782 10787 10791 10797 10801 10806 10812 10816 10821 10828 10835 10841 10848 10854 10860 10866 10870 10875 10882 10889 10896 10898 10899 10902 10909 10915 10920 10925 10930 10934 10937 10940 10942 10943 10945 10948 10950
10593 10584 10576 10570 10565 10561 10558 10556 10555 10554 10553 10553 10554 10555 10557 10559 10562 10564 10567 10571 10576 10581 10586 10591 10596 10603 10609 10615 10620 10626 10631 10636 10643 10649 10656 10663 10671 10679 10687 10695 10702 10708 10714 10719 10724 10731 10738 10745 10753 10761 10767 10773 10777 10782 10786 10791 10798 10804 10807 10813 10821 10826 10831 10838 10844 10852 10858 10861 10868 10876 10883 10890 10896 10898 10898 10902 10908 10915 10920 10925 10929 10932 10935 10937 10938 10941 10944 10947
10589 10580 10573 10567 10562 10558 10555 10553 10552 10550 10550 10549 10550 10551 10553 10555 10557 10560 10564 10568 10572 10577 10582 10587 10591 10597 10602 10608 10612 10617 10622 10627 10633 10639 10645 10652 10659 10667 10675 10683 10690 10697 10703 10708 10713 10719 10727 10734 10742 10751 10757 10763 10768 10771 10775 10782 10789 10795 10800 10806 10813 10818 10823 10829 10836 10844 10849 10853 10861 10870 10876 10883 10891 10894 10893 10896 10902 10909 10914 10919 10924 10928 10931 10932 10934 10937 10940 10944
10587 10578 10571 10565 10559 10556 10553 10550 10549 10547 10546 10546 10546 10548 10549 10551 10553 10556 10559 10563 10568 10573 10577 10581 10585 10590 10596 10601 10606 10611 10615 10620 10625 10631 10637 10643 10649 10655 10662 10670 10677 10684 10690 10695 10700 10707 10714 10722 10730 10740 10747 10753 10757 10761 10767 10773 10780 10787 10792 10798 10804 10810 10816 10822 10828 10836 10842 10847 10854 10862 10869 10877 10884 10887 10888 10891 10896 10902 10908 10913 10918 10922 10926 10927 10929 10932 10936 10940
10585 10577 10570 10564 10558 10554 10551 10548 10546 10545 10544 10544 10544 10545 10546 10547 10550 10552 10555 10559 10564 10568 10572 10575 10579 10584 10590 10596 10600 10604 10608 10613 10618 10623 10629 10635 10640 10646 10652 10659 10665 10671 10677 10683 10687 10694 10702 10710 10718 10727 10736 10742 10747 10752 10759 10765 10771 10778 10784 10790 10796 10802 10808 10814 10820 10827 10834 10840 10846 10853 10862 10870 10875 10879 10883 10887 10891 10896 10902 10907 10912 10916 10920 10922 10924 10928 10932 10935
10584 10576 10570 10564 10558 10553 10549 10547 10544 10543 10542 10542 10542 10543 10543 10544 10546 10549 10552 10555 10559 10562 10566 10570 10574 10578 10584 10589 10593 10597 10601 10606 10611 10617 10622 10627 10633 10638 10644 10650 10656 10661 10666 10671 10675 10681 10689 10698 10706 10715 10723 10731 10738 10744 10750 10755 10762 10769 10775 10781 10787 10793 10799 10805 10811 10819 10826 10832 10838 10845 10853 10860 10866 10872 10879 10884 10887 10891 10896 10901 10906 10910 10913 10916 10919 10923 10927 10930
10584 10576 10569 10563 10558 10552 10548 10545 10543 10541 10540 10540 10540 10541 10541 10542 10544 10546 10548 10551 10555 10558 10562 10565 10569 10573 10578 10583 10587 10591 10596 10601 10607 10612 10617 10621 10626 10631 10637 10643 10649 10654 10659 10663 10667 10671 10679 10687 10694 10703 10713 10721 10728 10735 10741 10746 10753 10759 10765 10772 10779 10784 10790 10796 10803 10810 10816 10822 10830 10837 10844 10851 10859 10866 10873 10878 10882 10886 10890 10894 10898 10903 10906 10910 10914 10917 10921 10925
10584 10577 10570 10563 10557 10552 10548 10544 10542 10540 10539 10539 10539 10539 10539 10540 10542 10544 10546 10549 10552 10555 10559 10562 10565 10570 10574 10578 10583 10587 10593 10598 10603 10607 10612 10616 10620 10624 10629 10636 10642 10647 10653 10658 10661 10666 10672 10679 10686 10695 10704 10713 10719 10726 10733 10738 10744 10750 10757 10763 10770 10776 10782 10788 10794 10800 10807 10814 10822 10828 10835 10843 10851 10858 10866 10871 10875 10879 10883 10887 10891 10895 10899 10903 10907 10911 10915 10919
10584 10576 10569 10563 10557 10552 10547 10544 10541 10539 10538 10537 10537 10537 10538 10539 10540 10541 10544 10546 10549 10552 10555 10558 10561 10565 10570 10574 10578 10582 10587 10592 10597 10601 10606 10610 10615 10619 10623 10628 10633 10639 10645 10650 10656 10661 10667 10674 10681 10690 10698 10706 10713 10719 10726 10731 10736 10742 10748 10755 10760 10766 10773 10778 10784 10791 10798 10806 10814 10820 10826 10834 10841 10849 10857 10862 10867 10872 10875 10879 10883 10887 10892 10896 10900 10905 10909 10913
10585 10576 10568 10562 10557 10552 10548 10544 10540 10538 10537 10536 10536 10536 10536 10537 10538 10540 10542 10544 10546 10549 10551 10553 10556 10560 10564 10568 10572 10575 10579 10584 10589 10593 10598 10603 10607 10612 10616 10620 10625 10630 10635 10641 10646 10652 10658 10664 10672 10680 10689 10698 10706 10713 10719 10724 10730 10735 10740 10746 10751 10757 10763 10770 10775 10781 10789 10798 10805 10811 10818 10824 10830 10839 10848 10853 10857 10863 10867 10870 10875 10879 10884 10889 10893 10898 10902 10906
10586 10577 10569 10562 10556 10552 10548 10544 10540 10538 10536 10535 10534 10534 10534 10535 10536 10538 10540 10542 10544 10546 10548 10550 10552 10555 10559 10563 10566 10570 10574 10578 10582 10586 10590 10594 10599 10603 10607 10611 10616 10620 10625 10630 10635 10640 10646 10652 10659 10667 10675 10685 10694 10702 10708 10715 10721 10727 10732 10737 10742 10747 10754 10761 10767 10774 10782 10790 10796 10802 10808 10813 10819 10829 10837 10843 10848 10853 10858 10862 10866 10872 10877 10881 10886 10891 10895 10900
10584 10576 10570 10563 10557 10552 10547 10543 10540 10537 10536 10534 10533 10533 10533 10534 10535 10536 10537 10539 10541 10543 10545 10547 10549 10551 10554 10558 10561 10564 10568 10572 10576 10579 10583 10587 10591 10595 10598 10602 10606 10610 10615 10620 10625 10631 10637 10641 10647 10653 10661 10670 10679 10688 10695 10701 10708 10715 10720 10725 10731 10737 10744 10751 10759 10766 10774 10780 10786 10793 10797 10801 10810 10818 10825 10832 10838 10843 10849 10853 10858 10864 10870 10874 10878 10884 10889 10893
10582 10576 10570 10564 10558 10553 10548 10543 10540 10537 10535 10533 10532 10531 10531 10532 10533 10534 10534 10535 10537 10539 10541 10543 10545 10548 10550 10553 10556 10559 10562 10566 10570 10574 10578 10581 10584 10588 10591 10594 10598 10601 10606 10611 10616 10621 10626 10631 10635 10640 10648 10656 10665 10674 10681 10688 10695 10701 10706 10711 10718 10725 10732 10740 10749 10757 10764 10769 10776 10783 10786 10790 10800 10808 10813 10820 10828 10834 10840 10845 10849 10855 10861 10867 10872 10877 10881 10886
10582 10576 10570 10564 10558 10552 10548 10543 10539 10536 10534 10532 10531 10530 10530 10530 10530 10531 10532 10532 10534 10536 10538 10540 10542 10545 10547 10549 10552 10555 10558 10562 10566 10569 10573 10576 10579 10581 10584 10587 10590 10594 10598 10602 10607 10611 10615 10619 10624 10629 10635 10643 10652 10661 10669 10676 10682 10687 10692 10698 10704 10711 10719 10728 10737 10746 10752 10758 10765 10771 10775 10780 10790 10798 10803 10809 10816 10824 10831 10837 10841 10847 10853 10860 10865 10870 10874 10879
10582 10576 10569 10563 10557 10552 10547 10543 10540 10536 10534 10532 10530 10529 10528 10528 10528 10528 10529 10530 10531 10533 10535 10536 10539 10541 10543 10545 10548 10550 10553 10557 10560 10564 10567 10570 10573 10575 10578 10581 10583 10587 10591 10594 10598 10601 10605 10609 10613 10618 10624 10630 10639 10648 10656 10663 10669 10675 10680 10686 10692 10699 10707 10715 10724 10732 10739 10745 10753 10759 10764 10770 10779 10788 10794 10799 10805 10813 10821 10828 10833 10839 10845 10852 10857 10862 10867 10872
10581 10575 10568 10563 10558 10553 10548 10544 10541 10537 10534 10532 10530 10528 10527 10526 10526 10526 10526 10527 10528 10530 10531 10532 10534 10536 10539 10541 10544 10546 10548 10550 10554 10556 10560 10563 10566 10568 10571 10574 10576 10579 10582 10586 10590 10593 10597 10601 10604 10608 10614 10619 10626 10635 10644 10651 10657 10663 10669 10675 10680 10688 10696 10704 10712 10719 10726 10732 10739 10746 10754 10761 10767 10776 10784 10790 10795 10802 10810 10817 10824 10830 10837 10843 10849 10854 10859 10864